Probability
0 0 0 0 0 0 0 0 0 0 0 0 0 0 0 0 0 0 0 0 0 0 0 0 0 0 0 0 0 0 0 0 0 0 0 0 0 0 0 0 0 0 0
0 0 0 0 0 0 0 0 0 0 0 0 0 0 0 0 0 0 0 0 0 0 0 0 0 0 0 0 0 0 0 0 0 0 0 0 0 0 0 0 0 0 0
0 0 0 0 0 0 0 0 0 0 0 0 0 0 0 0 0 0 0 0 0 0 0 0 0 0 0 0 0 0 0 0 0 0 0 0 0 0 0 0 0 0 0
0 0 0 0 0 0 0 0 0 0 0 0 0 0 0 0 0 0 0 0 0 0 0 0 0 0 0 0 0 0 0 0 0 0 0 0 0 0 0 0 0 0 0
0 0 0 0 0 0 0 0 0 0 0 0 0 0 0 0 0 0 0 0 0 0 0 0 0 0 0 0 0 0 0 0 0 0 0 0 0 0 0 0 0 0 0
0 0 0 0 0 0 0 0 0 0 0 0 0 0 0 0 0 0 0 0 0 0 0 0 0 0 0 0 0 0 0 0 0 0 0 0 0 0 0 0 0 0 0
0 0 0 0 0 0 0 0 0 0 0 0 0 0 0 0 0 0 0 0 0 0 0 0 0 0 0 0 0 0 0 0 0 0 0 0 0 0 0 0 0 0 0
0 0 0 0 0 0 0 0 0 0 0 0 0 0 0 0 0 0 0 0 0 0 0 0 0 0 0 0 0 0 0 0 0 0 0 0 0 0 0 0 0 0 0
0 0 0 0 0 0 0 0 0 0 0 0 0 0 0 0 0 0 0 0 0 0 0 0 0 0 0 0 0 0 0 0 0 0 0 0 0 0 0 0 0 0 0
0 0 0 0 0 0 0 0 0 0 0 0 0 0 0 0 0 0 0 0 0 0 0 0 0 0 0 0 0 0 0 0 0 0 0 0 0 0 0 0 0 0 0
0 0 0 0 0 0 0 0 0 0 0 0 0 0 0 0 0 0 0 0 0 0 0 0 0 0 0 0 0 0 0 0 0 0 0 0 0 0 0 0 0 0 0
0 0 0 0 0 0 0 0 0 0 0 0 0 0 0 0 0 0 0 0 0 0 0 0 0 0 0 0 0 0 0 0 0 0 0 0 0 0 0 0 0 0 0
0 0 0 0 0 0 0 0 0 0 0 0 0 0 0 0 0 0 0 0 0 0 0 0 0 0 0 0 0 0 0 0 0 0 0 0 0 0 0 0 0 0 0
0 0 0 0 0 0 0 0 0 0 0 0 0 0 0 0 0 0 0 0 0 0 0 0 0 0 0 0 0 0 0 0 0 0 0 0 0 0 0 0 0 0 0
0 0 0 0 0 0 0 0 0 0 0 0 0 0 0 0 0 0 0 0 0 0 0 0 0 0 0 0 0 0 0 0 0 0 0 0 0 0 0 0 0 0 0
0 0 0 0 0 0 0 0 0 0 0 0 0 0 0 0 0 0 0 0 0 0 0 0 0 0 0 0 0 0 0 0 0 0 0 0 0 0 0 0 0 0 0
0 0 0 0 0 0 0 0 0 0 0 0 0 0 0 0 0 0 0 0 0 0 0 0 0 0 0 0 0 0 0 0 0 0 0 0 0 0 0 0 0 0 0
0 0 0 0 0 0 0 0 0 0 0 0 0 0 0 0 0 0 0 0 0 0 0 0 0 0 0 0 0 0 0 0 0 0 0 0 0 0 0 0 0 0 0
0 0 0 0 0 0 0 0 0 0 0 0 0 0 0 0 0 0 0 0 0 0 0 0 0 0 0 0 0 0 0 0 0 0 0 0 0 0 0 0 0 0 0
0 0 0 0 0 0 0 0 0 0 0 0 0 0 0 0 0 0 0 0 0 0 0 0 0 0 0 0 0 0 0 0 0 0 0 0 0 0 0 0 0 0 0
0 0 0 0 0 0 0 0 0 0 0 0 0 0 0 0 0 0 0 0 0 0 0 0 0 0 0 0 0 0 0 0 0 0 0 0 0 0 0 0 0 0 0
0 0 0 0 0 0 0 0 0 0 0 0 0 0 0 0 0 0 0 0 0 0 0 0 0 0 0 0 0 0 0 0 0 0 0 0 0 0 0 0 0 0 0
0 0 0 0 0 0 0 0 0 0 0 0 0 0 0 0 0 0 0 0 0 0 0 0 0 0 0 0 0 0 0 0 0 0 0 0 0 0 0 0 0 0 0
0 0 0 0 0 0 0 0 0 0 0 0 0 0 0 0 0 0 0 0 0 0 0 0 0 0 0 0 0 0 0 0 0 0 0 0 0 0 0 0 0 0 0
0 0 0 0 0 0 0 0 0 0 0 0 0 0 0 0 0 0 0 0 0 0 0 0 0 0 0 0 0 0 0 0 0 0 0 0 0 0 0 0 0 0 0
0 0 0 0 0 0 0 0 0 0 0 0 0 0 0 0 0 0 0 0 0 0 0 0 0 0 0 0 0 0 0 0 0 0 0 0 0 0 0 0 0 0 0
Wind_Speed
4 3 3 3 3 3 3 3 3 4 4 4 4 4 4 5 4 4 3 4 4 4 3 3 4 4 3 3 3 3 3 4 8 8 5 5 5 6 6 6 6 6 7
4 3 3 3 3 3 3 3 4 4 4 4 4 4 5 5 5 4 5 5 4 5 5 4 4 4 4 4 4 4 4 4 6 10 7 5 6 6 6 7 7 6 6
3 3 4 3 3 4 4 4 4 4 4 4 5 5 5 5 5 5 5 5 5 4 4 4 5 4 5 4 5 4 4 5 5 7 8 6 5 5 6 7 7 6 7
3 3 4 4 4 3 4 4 4 4 4 4 4 4 4 5 5 5 5 5 5 5 5 5 5 4 5 5 5 5 5 6 6 6 7 6 5 5 5 6 7 6 7
3 3 3 3 3 3 3 4 4 4 4 4 4 5 5 4 5 6 5 5 5 5 5 5 5 6 8 7 6 6 6 5 6 6 6 6 6 6 6 6 8 8 7
2 3 3 4 4 4 4 4 4 5 5 5 5 5 5 5 9 10 8 5 5 5 6 6 5 5 8 10 10 10 9 7 7 7 6 7 8 7 7 7 7 8 8
2 3 3 4 4 4 4 4 5 5 5 5 5 5 5 7 11 11 10 6 5 5 6 6 6 6 6 6 8 10 9 10 10 8 8 8 9 8 8 8 8 8 9
2 3 3 3 3 4 4 4 5 4 4 4 5 5 5 7 11 10 10 6 5 5 5 6 6 7 7 8 7 8 7 7 9 6 6 8 7 7 7 8 8 9 8
2 3 3 3 3 3 4 4 4 4 4 4 4 4 5 6 10 11 10 4 4 5 5 5 6 6 11 13 9 8 8 7 10 12 12 12 14 13 10 6 6 6 7
2 3 2 2 2 3 3 3 3 3 3 4 4 4 5 5 9 11 11 4 5 5 5 5 6 10 12 14 8 7 9 9 8 9 9 10 9 9 10 6 5 5 6
2 2 2 2 2 2 3 3 3 3 3 3 4 4 4 5 8 10 11 5 5 5 5 5 6 13 14 14 12 7 10 10 7 7 7 7 6 5 5 5 5 5 6
1 1 2 2 2 2 2 3 2 2 3 3 3 4 3 4 6 8 11 9 8 5 5 5 7 13 14 14 10 11 14 10 5 6 6 6 6 6 6 7 7 6 6
1 1 2 2 2 2 2 2 2 2 2 3 3 4 4 4 5 9 9 10 11 6 5 9 11 13 12 9 11 14 9 5 5 5 6 6 6 6 6 6 6 6 7
1 2 2 1 2 2 2 2 2 2 2 3 3 4 4 4 4 4 4 5 7 6 5 7 10 11 9 8 8 7 5 5 5 5 6 6 6 5 5 5 6 7 6
1 1 2 2 2 2 2 2 3 3 3 3 3 3 4 5 6 9 7 5 4 5 5 4 4 4 5 5 5 5 5 5 5 5 5 6 6 6 6 5 5 5 5
2 2 2 2 2 2 2 3 4 4 6 7 7 6 5 7 10 10 10 10 10 9 5 3 4 4 4 5 6 6 5 5 5 5 5 5 6 6 6 5 5 5 6
3 3 2 2 2 2 2 2 3 4 5 6 7 8 8 9 10 10 10 10 9 8 3 3 3 4 4 5 5 5 6 6 5 5 5 5 6 6 6 6 5 5 6
3 3 3 2 2 2 2 2 2 3 4 4 6 8 9 10 10 10 10 8 5 4 2 3 3 4 4 5 5 5 6 6 5 5 5 5 5 5 5 6 6 6 6
3 3 2 2 2 2 2 2 2 3 3 4 4 5 7 9 9 9 8 3 3 3 3 3 3 4 4 4 5 5 6 6 5 5 5 5 5 5 5 6 6 7 6
3 4 3 2 2 2 2 3 3 3 3 4 4 4 3 3 3 4 3 2 3 3 4 4 4 4 4 4 5 5 5 6 6 5 5 5 5 5 6 7 6 6 6
3 3 4 3 3 3 3 3 3 3 3 4 4 5 6 3 3 3 3 3 3 4 4 4 4 4 4 4 4 5 6 6 5 5 5 5 5 5 5 5 6 6 6
3 3 3 4 3 3 3 3 3 3 4 4 4 5 7 3 3 4 4 4 4 4 4 4 4 4 4 4 5 5 6 6 6 5 6 6 5 5 5 5 6 6 5
3 3 3 3 3 3 3 3 3 4 4 4 4 3 3 3 4 4 4 4 4 4 4 4 4 5 4 4 5 5 6 6 6 6 6 6 6 5 5 6 7 6 6
4 4 4 3 3 3 4 4 4 4 4 4 4 4 4 4 4 5 5 4 4 4 4 4 5 7 8 7 5 5 6 6 6 6 7 7 7 6 5 6 6 7 6
4 4 4 4 4 4 4 4 4 4 4 4 4 4 4 4 4 5 4 4 5 5 6 5 5 6 8 9 8 7 9 11 9 6 6 5 6 6 6 6 6 6 6
4 4 4 4 4 4 4 4 4 4 4 4 4 4 4 4 5 5 4 4 5 5 5 5 6 8 9 8 9 11 11 11 10 9 5 5 5 6 6 5 7 6 6
Wind_Direction
357 1 10 8 12 16 15 4 358 357 355 351 345 347 351 349 346 343 334 333 334 332 329 330 326 322 317 314 308 300 292 285 285 293 293 303 307 308 312 310 307 305 305
357 6 7 9 12 15 10 359 359 1 359 353 351 352 354 352 348 345 338 339 333 330 330 330 323 323 322 317 314 308 300 290 284 293 302 305 301 303 310 309 310 307 303
5 12 9 6 9 7 358 352 355 357 359 357 358 357 351 347 347 347 344 342 340 337 334 329 324 326 321 318 314 310 307 307 295 290 297 301 302 310 313 307 303 301 304
9 14 10 1 0 356 352 354 355 357 1 358 354 350 347 343 347 351 352 352 348 349 347 342 336 333 325 323 320 320 317 313 307 298 296 300 302 308 309 311 310 308 307
9 10 356 351 354 355 357 0 0 360 359 353 356 357 353 348 351 354 354 350 345 344 344 342 337 336 330 327 324 322 318 311 308 303 298 301 305 316 312 310 304 308 301
2 353 346 355 358 359 357 2 2 3 3 0 1 357 356 355 356 357 354 352 347 343 339 337 334 334 331 330 327 322 318 312 308 304 299 302 304 305 305 304 306 308 304
3 356 357 1 3 2 2 7 1 0 4 2 0 359 354 352 356 357 356 354 344 340 336 334 333 332 328 326 325 325 322 318 314 307 301 301 304 308 308 304 300 296 293
359 354 354 357 1 1 4 1 355 356 359 356 355 355 352 348 353 355 356 355 343 340 339 338 333 334 335 332 329 325 320 320 321 319 305 305 309 311 302 298 297 298 296
341 338 341 346 352 355 353 348 347 350 350 349 348 351 349 342 347 351 353 344 342 337 336 336 330 329 333 339 337 327 324 324 329 324 318 315 315 316 316 310 306 304 301
308 315 332 339 339 338 333 334 343 341 340 343 346 348 340 334 339 346 348 342 334 330 329 330 329 331 334 338 336 328 325 325 326 325 323 320 317 314 317 308 298 293 298
303 320 332 331 325 320 324 332 338 337 340 340 336 334 333 329 332 340 343 341 331 326 327 330 328 330 334 336 337 331 324 327 325 321 317 317 319 320 323 320 309 294 288
318 318 320 323 321 326 326 328 334 333 333 329 330 326 326 324 330 335 338 338 335 326 321 322 323 329 334 337 337 334 335 336 327 322 320 320 322 323 323 319 312 304 290
313 298 304 321 326 325 317 316 324 327 321 317 321 318 319 323 325 331 334 334 333 329 322 323 326 330 334 338 337 338 341 338 330 326 321 319 318 314 315 315 314 312 304
249 279 300 310 318 326 315 305 302 302 299 301 304 306 311 316 318 324 326 329 333 330 330 331 330 332 335 337 337 340 340 334 327 319 314 313 316 318 320 323 321 326 320
250 279 295 294 298 307 304 290 287 276 281 287 286 292 303 307 315 324 329 328 329 327 335 334 335 338 343 339 335 331 330 333 330 323 317 317 320 322 322 325 320 322 314
238 258 265 274 284 291 299 310 302 294 305 304 299 298 297 305 319 326 330 330 333 338 343 331 330 330 328 328 327 326 326 326 323 319 316 316 318 319 318 320 319 316 311
225 239 249 257 266 277 285 292 307 319 315 314 315 313 314 318 323 327 330 333 338 344 342 323 320 320 319 319 317 315 314 316 315 313 313 315 314 313 313 315 317 316 311
228 234 233 241 248 254 257 263 269 286 307 310 318 319 323 324 326 329 332 339 336 342 323 311 309 309 309 310 310 308 309 312 315 313 310 308 309 310 310 312 311 309 308
223 231 229 237 243 247 254 259 262 266 275 289 303 313 320 323 327 332 341 339 312 313 310 302 296 297 298 301 303 304 304 305 308 309 306 305 305 305 305 306 305 305 303
226 234 226 225 234 239 242 247 255 262 272 281 287 293 305 317 316 321 328 311 302 298 298 296 295 293 294 297 299 301 304 305 308 306 306 306 304 300 300 303 304 304 301
218 224 219 220 227 232 236 241 249 255 263 272 276 284 301 301 293 294 296 294 288 288 290 291 292 293 293 295 295 296 297 299 301 303 304 303 303 302 299 297 297 295 297
207 212 215 223 231 235 239 241 244 250 258 267 279 291 300 299 284 282 281 281 279 275 275 278 282 282 283 285 289 292 294 297 299 301 301 302 300 300 300 300 302 303 302
203 212 223 230 233 239 244 243 243 247 254 259 268 278 281 275 274 277 280 283 285 285 285 280 280 284 283 280 276 276 282 287 289 290 294 298 300 299 299 300 300 302 302
202 211 221 229 230 233 239 246 247 251 256 261 264 266 268 270 272 276 279 281 283 282 280 277 275 278 284 287 282 277 275 279 281 280 278 283 291 294 295 297 297 295 295
203 211 219 225 228 233 239 245 248 251 255 259 262 266 269 271 273 276 278 280 283 283 284 283 280 282 285 287 287 286 288 292 289 280 275 276 282 286 289 292 295 297 296
208 215 223 226 229 231 234 241 246 248 252 256 257 259 263 267 271 275 279 281 285 287 289 288 287 290 292 292 290 293 294 296 293 283 272 273 279 285 290 289 294 296 296